{"data":{"norad_id":63655,"intl_designator":"2025-083X","name":"STARLINK-33873","alt_names":[],"object_type":"PAYLOAD","status":"ACTIVE","operator":null,"country":"US","launch_date":"2025-04-25","launch_site_code":"AFETR","launch_vehicle":null,"mission":null,"orbit_class":"UNKNOWN","rcs_meters":null,"size_class":null,"mass_kg":null,"dimensions":null,"purposes":["comms"],"wikipedia_slug":null,"has_3d_model":false,"image_url":null,"decayed_at":null,"tle_current":{"epoch":"2026-05-24T19:02:07.445472Z","epoch_age_seconds":86837,"freshness":"FRESH","line1":"1 63655U 25083X   26144.79314173  .00028322  00000+0  10339-2 0  9999","line2":"2 63655  43.0019 295.6092 0001276 275.6405  84.4301 15.27607181 61737","mean_motion":15.27607181,"eccentricity":0.0001276,"inclination_deg":43.0019,"raan_deg":295.6092,"arg_perigee_deg":275.6405,"mean_anomaly_deg":84.4301,"bstar":0.0010339,"rev_number":6173,"period_min":94.265071407778,"perigee_km":482.09223059348,"apogee_km":483.84318451484,"semimajor_km":6861.1047075542,"source":"CELESTRAK","updated_at":"2026-05-25T13:38:20.056536Z"}}}